^^
Saratoga-Weather Station Historical Data
Daily Summary for February 24, 2020 Units:  Metric    English   Both
Daily Weekly Monthly Yearly Custom
  High: Low: Average:
Temperature: 0.8 °C -0.9 °C 0.2 °C
Dew Point: 0.2 °C -1.6 °C -0.6 °C
Humidity: 97% 93% 95%
Wind Speed: 0km/h 0km/h 0km/h
Wind Gust: 4.8km/h - -
Wind- -
Pressure: 1026.8 hPa 1022.4 hPa -
Precipitation: 0.0 mm    
Historical Graphs
 
 
Tabular Data for February 24, 2020
Time Temperature Dew Point Pressure Wind Wind Speed Wind Gust Humidity Rainfall Rate (Hourly) solar
00:02 0.5 °C -0.4 °C 1026.8 hPa Calm     94% 0.0 mm 0 W/m2
00:07 0.5 °C -0.4 °C 1026.8 hPa Calm     94% 0.0 mm 0 W/m2
00:12 0.5 °C -0.4 °C 1026.8 hPa Calm     94% 0.0 mm 0 W/m2
00:17 0.5 °C -0.4 °C 1026.8 hPa Calm     94% 0.0 mm 0 W/m2
00:22 0.5 °C -0.4 °C 1026.4 hPa Calm     94% 0.0 mm 0 W/m2
00:27 0.5 °C -0.4 °C 1026.4 hPa Calm     94% 0.0 mm 0 W/m2
00:32 0.5 °C -0.4 °C 1026.4 hPa Calm     94% 0.0 mm 0 W/m2
00:37 0.5 °C -0.4 °C 1026.4 hPa Calm     94% 0.0 mm 0 W/m2
00:42 0.5 °C -0.4 °C 1026.4 hPa Calm     94% 0.0 mm 0 W/m2
00:47 0.5 °C -0.4 °C 1026.4 hPa Calm     94% 0.0 mm 0 W/m2
00:52 0.5 °C -0.4 °C 1026.4 hPa Calm     94% 0.0 mm 0 W/m2
00:57 0.4 °C -0.5 °C 1026.1 hPa Calm     94% 0.0 mm 0 W/m2
01:02 0.4 °C -0.5 °C 1026.1 hPa Calm     94% 0.0 mm 0 W/m2
01:07 0.4 °C -0.5 °C 1026.1 hPa Calm     94% 0.0 mm 0 W/m2
01:12 0.3 °C -0.6 °C 1026.1 hPa Calm     94% 0.0 mm 0 W/m2
01:17 0.3 °C -0.6 °C 1026.1 hPa Calm     94% 0.0 mm 0 W/m2
01:22 0.3 °C -0.6 °C 1026.1 hPa Calm     94% 0.0 mm 0 W/m2
01:27 0.3 °C -0.6 °C 1025.7 hPa Calm     94% 0.0 mm 0 W/m2
01:32 0.3 °C -0.6 °C 1025.7 hPa Calm   1.6 km/h 94% 0.0 mm 0 W/m2
01:37 0.3 °C -0.6 °C 1025.7 hPa Calm     94% 0.0 mm 0 W/m2
01:42 0.3 °C -0.6 °C 1025.7 hPa Calm   1.6 km/h 94% 0.0 mm 0 W/m2
01:47 0.3 °C -0.6 °C 1025.7 hPa Calm     94% 0.0 mm 0 W/m2
01:52 0.3 °C -0.6 °C 1025.7 hPa Calm     94% 0.0 mm 0 W/m2
01:57 0.3 °C -0.6 °C 1025.7 hPa Calm     94% 0.0 mm 0 W/m2
02:02 0.3 °C -0.6 °C 1025.7 hPa Calm     94% 0.0 mm 0 W/m2
02:07 0.2 °C -0.7 °C 1025.7 hPa Calm     94% 0.0 mm 0 W/m2
02:12 0.2 °C -0.7 °C 1025.7 hPa Calm     94% 0.0 mm 0 W/m2
02:17 0.2 °C -0.8 °C 1025.7 hPa Calm     93% 0.0 mm 0 W/m2
02:22 0.1 °C -0.9 °C 1025.7 hPa Calm     93% 0.0 mm 0 W/m2
02:27 0.1 °C -0.9 °C 1025.7 hPa Calm     93% 0.0 mm 0 W/m2
02:32 0.1 °C -0.8 °C 1025.7 hPa Calm     94% 0.0 mm 0 W/m2
02:37 0.1 °C -0.8 °C 1025.7 hPa Calm     94% 0.0 mm 0 W/m2
02:42 0.1 °C -0.8 °C 1025.7 hPa Calm     94% 0.0 mm 0 W/m2
02:47 0.1 °C -0.8 °C 1025.4 hPa Calm     94% 0.0 mm 0 W/m2
02:52 0.1 °C -0.9 °C 1025.4 hPa Calm     93% 0.0 mm 0 W/m2
02:57 0 °C -1 °C 1025.4 hPa Calm     93% 0.0 mm 0 W/m2
03:02 0 °C -1 °C 1025.4 hPa Calm     93% 0.0 mm 0 W/m2
03:07 0 °C -0.8 °C 1025.1 hPa Calm     94% 0.0 mm 0 W/m2
03:13 0.1 °C -0.8 °C 1025.1 hPa Calm     94% 0.0 mm 0 W/m2
03:18 0.1 °C -0.8 °C 1025.1 hPa Calm   4.8 km/h 94% 0.0 mm 0 W/m2
03:23 0 °C -1 °C 1025.1 hPa Calm     93% 0.0 mm 0 W/m2
03:28 0 °C -1 °C 1025.1 hPa Calm   1.6 km/h 93% 0.0 mm 0 W/m2
03:33 -0.1 °C -1.1 °C 1025.1 hPa Calm     93% 0.0 mm 0 W/m2
03:38 0 °C -1 °C 1025.1 hPa Calm     93% 0.0 mm 0 W/m2
03:43 -0.1 °C -1.1 °C 1024.7 hPa Calm     93% 0.0 mm 0 W/m2
03:48 -0.1 °C -1.1 °C 1024.7 hPa Calm     93% 0.0 mm 0 W/m2
03:53 -0.1 °C -1.1 °C 1024.7 hPa Calm     93% 0.0 mm 0 W/m2
03:58 -0.1 °C -1.1 °C 1024.7 hPa Calm     93% 0.0 mm 0 W/m2
04:03 -0.1 °C -1.1 °C 1024.4 hPa Calm     93% 0.0 mm 0 W/m2
04:08 -0.1 °C -1.1 °C 1024.4 hPa Calm   1.6 km/h 93% 0.0 mm 0 W/m2
04:13 -0.1 °C -1.1 °C 1024.4 hPa Calm     93% 0.0 mm 0 W/m2
04:18 -0.1 °C -1.1 °C 1024.4 hPa Calm   1.6 km/h 93% 0.0 mm 0 W/m2
04:23 -0.1 °C -1.1 °C 1024.4 hPa Calm     93% 0.0 mm 0 W/m2
04:28 -0.1 °C -1.1 °C 1024.4 hPa Calm     93% 0.0 mm 0 W/m2
04:33 -0.1 °C -1.1 °C 1024.4 hPa Calm     93% 0.0 mm 0 W/m2
04:38 -0.1 °C -1.1 °C 1024.4 hPa Calm     93% 0.0 mm 0 W/m2
04:43 -0.2 °C -1.2 °C 1024.4 hPa Calm     93% 0.0 mm 0 W/m2
04:48 -0.2 °C -1.2 °C 1024.4 hPa Calm     93% 0.0 mm 0 W/m2
04:53 -0.2 °C -1.2 °C 1024.0 hPa Calm     93% 0.0 mm 0 W/m2
04:58 -0.1 °C -1.1 °C 1024.0 hPa Calm     93% 0.0 mm 0 W/m2
05:03 -0.1 °C -1.1 °C 1024.0 hPa Calm     93% 0.0 mm 0 W/m2
05:08 -0.1 °C -1.1 °C 1024.4 hPa Calm     93% 0.0 mm 0 W/m2
05:13 -0.2 °C -1.2 °C 1024.4 hPa Calm     93% 0.0 mm 0 W/m2
05:18 -0.2 °C -1.2 °C 1024.0 hPa Calm     93% 0.0 mm 0 W/m2
05:23 -0.2 °C -1.2 °C 1024.0 hPa Calm     93% 0.0 mm 0 W/m2
05:28 -0.2 °C -1.2 °C 1024.0 hPa Calm     93% 0.0 mm 0 W/m2
05:33 -0.2 °C -1.2 °C 1024.0 hPa Calm     93% 0.0 mm 0 W/m2
05:38 -0.3 °C -1.3 °C 1024.0 hPa Calm     93% 0.0 mm 0 W/m2
05:43 -0.3 °C -1.3 °C 1024.0 hPa Calm     93% 0.0 mm 0 W/m2
05:48 -0.3 °C -1.3 °C 1024.0 hPa Calm     93% 0.0 mm 0 W/m2
05:53 -0.3 °C -1.3 °C 1024.4 hPa Calm     93% 0.0 mm 0 W/m2
05:58 -0.3 °C -1.3 °C 1024.4 hPa Calm     93% 0.0 mm 0 W/m2
06:04 -0.3 °C -1.3 °C 1024.4 hPa Calm     93% 0.0 mm 0 W/m2
06:09 -0.3 °C -1.3 °C 1024.0 hPa Calm     93% 0.0 mm 0 W/m2
06:14 -0.3 °C -1.3 °C 1024.4 hPa Calm     93% 0.0 mm 0 W/m2
06:19 -0.3 °C -1.3 °C 1024.4 hPa Calm     93% 0.0 mm 0 W/m2
06:24 -0.3 °C -1.3 °C 1024.4 hPa Calm     93% 0.0 mm 0 W/m2
06:29 -0.3 °C -1.3 °C 1024.4 hPa Calm     93% 0.0 mm 0 W/m2
06:34 -0.3 °C -1.3 °C 1024.4 hPa Calm     93% 0.0 mm 0 W/m2
06:39 -0.3 °C -1.1 °C 1024.4 hPa Calm     94% 0.0 mm 0 W/m2
06:44 -0.3 °C -1.3 °C 1024.4 hPa Calm     93% 0.0 mm 0 W/m2
06:49 -0.3 °C -1.3 °C 1024.4 hPa Calm     93% 0.0 mm 0 W/m2
06:54 -0.3 °C -1.1 °C 1024.7 hPa Calm     94% 0.0 mm 0 W/m2
06:59 -0.3 °C -1.1 °C 1024.4 hPa Calm     94% 0.0 mm 0 W/m2
07:04 -0.3 °C -1.1 °C 1024.7 hPa Calm     94% 0.0 mm 0 W/m2
07:09 -0.3 °C -1.1 °C 1024.7 hPa Calm     94% 0.0 mm 0 W/m2
07:14 -0.4 °C -1.2 °C 1024.7 hPa Calm     94% 0.0 mm 0 W/m2
07:19 -0.4 °C -1.4 °C 1024.7 hPa Calm     93% 0.0 mm 0 W/m2
07:24 -0.4 °C -1.2 °C 1024.4 hPa Calm     94% 0.0 mm 0 W/m2
07:29 -0.4 °C -1.2 °C 1024.7 hPa Calm     94% 0.0 mm 0 W/m2
07:34 -0.5 °C -1.3 °C 1024.7 hPa Calm     94% 0.0 mm 0 W/m2
07:39 -0.4 °C -1.2 °C 1024.7 hPa Calm     94% 0.0 mm 0 W/m2
07:44 -0.5 °C -1.3 °C 1024.4 hPa Calm     94% 0.0 mm 0 W/m2
07:49 -0.5 °C -1.3 °C 1024.4 hPa Calm     94% 0.0 mm 0 W/m2
07:54 -0.5 °C -1.3 °C 1024.4 hPa Calm     94% 0.0 mm 0 W/m2
07:59 -0.6 °C -1.4 °C 1024.4 hPa Calm     94% 0.0 mm 0 W/m2
08:04 -0.6 °C -1.4 °C 1024.7 hPa Calm     94% 0.0 mm 0 W/m2
08:09 -0.6 °C -1.4 °C 1024.7 hPa Calm     94% 0.0 mm 0 W/m2
08:14 -0.6 °C -1.4 °C 1024.7 hPa Calm     94% 0.0 mm 0 W/m2
08:19 -0.6 °C -1.4 °C 1024.7 hPa Calm     94% 0.0 mm 0 W/m2
08:24 -0.6 °C -1.4 °C 1024.7 hPa Calm     94% 0.0 mm 0 W/m2
08:30 -0.6 °C -1.4 °C 1024.7 hPa Calm     94% 0.0 mm 0 W/m2
08:35 -0.6 °C -1.4 °C 1024.7 hPa Calm     94% 0.0 mm 0 W/m2
08:40 -0.7 °C -1.5 °C 1024.7 hPa Calm     94% 0.0 mm 5 W/m2
08:45 -0.7 °C -1.5 °C 1024.7 hPa Calm     94% 0.0 mm 5 W/m2
08:50 -0.7 °C -1.5 °C 1024.7 hPa Calm   1.6 km/h 94% 0.0 mm 7 W/m2
08:55 -0.7 °C -1.4 °C 1024.7 hPa Calm     95% 0.0 mm 7 W/m2
09:00 -0.7 °C -1.4 °C 1024.7 hPa Calm     95% 0.0 mm 11 W/m2
09:05 -0.8 °C -1.6 °C 1024.7 hPa Calm     94% 0.0 mm 11 W/m2
09:10 -0.8 °C -1.6 °C 1024.7 hPa Calm     94% 0.0 mm 12 W/m2
09:15 -0.8 °C -1.5 °C 1025.1 hPa Calm     95% 0.0 mm 16 W/m2
09:20 -0.8 °C -1.5 °C 1024.7 hPa Calm     95% 0.0 mm 16 W/m2
09:25 -0.8 °C -1.5 °C 1024.7 hPa Calm     95% 0.0 mm 18 W/m2
09:30 -0.8 °C -1.5 °C 1024.7 hPa Calm     95% 0.0 mm 19 W/m2
09:35 -0.9 °C -1.6 °C 1024.7 hPa Calm     95% 0.0 mm 21 W/m2
09:40 -0.9 °C -1.6 °C 1024.7 hPa Calm     95% 0.0 mm 23 W/m2
09:45 -0.9 °C -1.6 °C 1024.7 hPa Calm     95% 0.0 mm 23 W/m2
09:50 -0.8 °C -1.5 °C 1024.7 hPa Calm     95% 0.0 mm 26 W/m2
09:55 -0.9 °C -1.6 °C 1024.7 hPa Calm     95% 0.0 mm 28 W/m2
10:00 -0.8 °C -1.5 °C 1024.7 hPa Calm     95% 0.0 mm 30 W/m2
10:05 -0.8 °C -1.5 °C 1024.7 hPa Calm     95% 0.0 mm 37 W/m2
10:10 -0.9 °C -1.6 °C 1024.7 hPa Calm     95% 0.0 mm 37 W/m2
10:15 -0.9 °C -1.6 °C 1024.7 hPa Calm   1.6 km/h 95% 0.0 mm 37 W/m2
10:20 -0.9 °C -1.6 °C 1024.7 hPa Calm     95% 0.0 mm 39 W/m2
10:25 -0.8 °C -1.5 °C 1024.7 hPa Calm     95% 0.0 mm 44 W/m2
10:31 -0.8 °C -1.5 °C 1024.7 hPa Calm     95% 0.0 mm 46 W/m2
10:36 -0.8 °C -1.5 °C 1024.7 hPa Calm     95% 0.0 mm 49 W/m2
10:41 -0.7 °C -1.4 °C 1024.7 hPa Calm     95% 0.0 mm 53 W/m2
10:46 -0.7 °C -1.4 °C 1024.7 hPa Calm   1.6 km/h 95% 0.0 mm 56 W/m2
10:51 -0.6 °C -1.3 °C 1024.7 hPa Calm     95% 0.0 mm 58 W/m2
10:56 -0.6 °C -1.3 °C 1024.7 hPa Calm     95% 0.0 mm 58 W/m2
11:01 -0.6 °C -1.3 °C 1024.7 hPa Calm     95% 0.0 mm 62 W/m2
11:06 -0.6 °C -1.3 °C 1024.7 hPa Calm     95% 0.0 mm 58 W/m2
11:11 -0.5 °C -1.2 °C 1024.4 hPa Calm     95% 0.0 mm 69 W/m2
11:16 -0.5 °C -1.2 °C 1024.4 hPa Calm     95% 0.0 mm 70 W/m2
11:21 -0.4 °C -1.1 °C 1024.4 hPa Calm     95% 0.0 mm 72 W/m2
11:26 -0.4 °C -1.1 °C 1024.4 hPa Calm     95% 0.0 mm 74 W/m2
11:31 -0.4 °C -1.1 °C 1024.4 hPa Calm     95% 0.0 mm 72 W/m2
11:36 -0.4 °C -1.1 °C 1024.4 hPa Calm     95% 0.0 mm 72 W/m2
11:41 -0.4 °C -1.1 °C 1024.4 hPa Calm     95% 0.0 mm 74 W/m2
11:46 -0.3 °C -1 °C 1024.0 hPa Calm     95% 0.0 mm 83 W/m2
11:51 -0.3 °C -1 °C 1024.0 hPa Calm     95% 0.0 mm 76 W/m2
11:56 -0.3 °C -1 °C 1024.0 hPa Calm     95% 0.0 mm 77 W/m2
12:01 -0.3 °C -1 °C 1024.0 hPa Calm     95% 0.0 mm 74 W/m2
12:06 -0.3 °C -1 °C 1024.0 hPa Calm     95% 0.0 mm 77 W/m2
12:11 -0.2 °C -0.9 °C 1023.7 hPa Calm     95% 0.0 mm 83 W/m2
12:16 -0.2 °C -0.9 °C 1023.7 hPa Calm     95% 0.0 mm 81 W/m2
12:21 -0.2 °C -0.9 °C 1023.7 hPa Calm     95% 0.0 mm 86 W/m2
12:26 -0.1 °C -0.8 °C 1023.7 hPa Calm     95% 0.0 mm 84 W/m2
12:31 -0.1 °C -0.8 °C 1023.7 hPa Calm     95% 0.0 mm 91 W/m2
12:36 -0.1 °C -0.8 °C 1023.7 hPa Calm     95% 0.0 mm 83 W/m2
12:41 -0.1 °C -0.8 °C 1023.7 hPa Calm     95% 0.0 mm 83 W/m2
12:46 0 °C -0.7 °C 1023.7 hPa Calm     95% 0.0 mm 91 W/m2
12:51 0.1 °C -0.6 °C 1023.7 hPa Calm     95% 0.0 mm 84 W/m2
12:56 0.1 °C -0.6 °C 1023.7 hPa Calm     95% 0.0 mm 84 W/m2
13:01 0.1 °C -0.6 °C 1023.7 hPa Calm     95% 0.0 mm 86 W/m2
13:06 0.1 °C -0.6 °C 1023.7 hPa Calm     95% 0.0 mm 81 W/m2
13:11 0.1 °C -0.6 °C 1023.7 hPa Calm     95% 0.0 mm 70 W/m2
13:16 0.2 °C -0.5 °C 1023.4 hPa Calm     95% 0.0 mm 70 W/m2
13:21 0.3 °C -0.4 °C 1023.4 hPa Calm     95% 0.0 mm 70 W/m2
13:26 0.3 °C -0.4 °C 1023.4 hPa Calm     95% 0.0 mm 69 W/m2
13:31 0.3 °C -0.4 °C 1023.4 hPa Calm     95% 0.0 mm 74 W/m2
13:36 0.3 °C -0.4 °C 1023.4 hPa Calm     95% 0.0 mm 72 W/m2
13:41 0.3 °C -0.4 °C 1023.4 hPa Calm     95% 0.0 mm 69 W/m2
13:46 0.4 °C -0.3 °C 1023.4 hPa Calm     95% 0.0 mm 65 W/m2
13:52 0.5 °C -0.2 °C 1023.4 hPa Calm     95% 0.0 mm 69 W/m2
13:57 0.5 °C -0.2 °C 1023.4 hPa Calm     95% 0.0 mm 72 W/m2
14:02 0.6 °C -0.1 °C 1023.4 hPa Calm     95% 0.0 mm 76 W/m2
14:07 0.6 °C -0.1 °C 1023.4 hPa Calm     95% 0.0 mm 67 W/m2
14:12 0.6 °C -0.1 °C 1023.4 hPa Calm     95% 0.0 mm 74 W/m2
14:17 0.6 °C -0.1 °C 1023.4 hPa Calm     95% 0.0 mm 67 W/m2
14:22 0.6 °C -0.1 °C 1023.4 hPa Calm     95% 0.0 mm 62 W/m2
14:27 0.6 °C -0.1 °C 1023.4 hPa Calm     95% 0.0 mm 65 W/m2
14:32 0.6 °C -0.1 °C 1023.4 hPa Calm     95% 0.0 mm 63 W/m2
14:37 0.6 °C -0.1 °C 1023.0 hPa Calm     95% 0.0 mm 65 W/m2
14:42 0.7 °C 0 °C 1023.4 hPa Calm     95% 0.0 mm 56 W/m2
14:47 0.7 °C 0 °C 1023.0 hPa Calm     95% 0.0 mm 58 W/m2
14:52 0.7 °C 0 °C 1023.0 hPa Calm     95% 0.0 mm 60 W/m2
14:57 0.7 °C 0 °C 1023.0 hPa Calm     95% 0.0 mm 58 W/m2
15:02 0.8 °C 0.1 °C 1023.0 hPa Calm     95% 0.0 mm 56 W/m2
15:07 0.8 °C 0.1 °C 1022.7 hPa Calm     95% 0.0 mm 56 W/m2
15:12 0.8 °C 0.1 °C 1022.7 hPa Calm     95% 0.0 mm 49 W/m2
15:17 0.8 °C 0.1 °C 1022.7 hPa Calm     95% 0.0 mm 53 W/m2
15:22 0.8 °C 0.1 °C 1022.7 hPa Calm     95% 0.0 mm 53 W/m2
15:27 0.8 °C 0.1 °C 1022.7 hPa Calm     95% 0.0 mm 49 W/m2
15:32 0.8 °C 0.1 °C 1022.7 hPa Calm     95% 0.0 mm 40 W/m2
15:37 0.8 °C 0.1 °C 1022.7 hPa Calm     95% 0.0 mm 47 W/m2
15:42 0.8 °C 0.1 °C 1022.7 hPa Calm     95% 0.0 mm 42 W/m2
15:47 0.8 °C 0.1 °C 1022.7 hPa Calm     95% 0.0 mm 39 W/m2
15:52 0.8 °C 0.1 °C 1022.7 hPa Calm     95% 0.0 mm 46 W/m2
15:57 0.7 °C 0 °C 1022.7 hPa Calm     95% 0.0 mm 40 W/m2
16:02 0.7 °C 0 °C 1022.7 hPa Calm     95% 0.0 mm 32 W/m2
16:07 0.7 °C 0 °C 1022.7 hPa Calm     95% 0.0 mm 26 W/m2
16:12 0.7 °C 0 °C 1022.4 hPa Calm     95% 0.0 mm 28 W/m2
16:17 0.7 °C 0 °C 1022.7 hPa Calm     95% 0.0 mm 28 W/m2
16:22 0.7 °C 0 °C 1022.7 hPa Calm     95% 0.0 mm 23 W/m2
16:27 0.7 °C 0 °C 1022.7 hPa Calm     95% 0.0 mm 19 W/m2
16:32 0.7 °C 0 °C 1022.7 hPa Calm     95% 0.0 mm 16 W/m2
16:37 0.7 °C 0 °C 1022.7 hPa Calm     95% 0.0 mm 14 W/m2
16:42 0.7 °C 0 °C 1022.7 hPa Calm     95% 0.0 mm 11 W/m2
16:47 0.7 °C 0 °C 1022.7 hPa Calm     95% 0.0 mm 9 W/m2
16:52 0.7 °C 0 °C 1022.7 hPa Calm     95% 0.0 mm 7 W/m2
16:57 0.7 °C 0 °C 1022.7 hPa Calm     95% 0.0 mm 5 W/m2
17:02 0.7 °C 0 °C 1022.7 hPa Calm     95% 0.0 mm 5 W/m2
17:07 0.7 °C 0 °C 1022.7 hPa Calm     95% 0.0 mm 0 W/m2
17:12 0.7 °C 0 °C 1022.7 hPa Calm     95% 0.0 mm 0 W/m2
17:17 0.7 °C 0 °C 1022.7 hPa Calm     95% 0.0 mm 0 W/m2
17:22 0.7 °C 0 °C 1022.7 hPa Calm     95% 0.0 mm 0 W/m2
17:27 0.7 °C 0 °C 1023.0 hPa Calm     95% 0.0 mm 0 W/m2
17:32 0.7 °C 0 °C 1023.0 hPa Calm     95% 0.0 mm 0 W/m2
17:37 0.7 °C 0 °C 1023.0 hPa Calm     95% 0.0 mm 0 W/m2
17:42 0.7 °C 0 °C 1023.0 hPa Calm     95% 0.0 mm 0 W/m2
17:47 0.8 °C 0.1 °C 1023.0 hPa Calm     95% 0.0 mm 0 W/m2
17:52 0.8 °C 0.1 °C 1023.0 hPa Calm     95% 0.0 mm 0 W/m2
17:57 0.8 °C 0.1 °C 1023.0 hPa Calm     95% 0.0 mm 0 W/m2
18:02 0.8 °C 0.1 °C 1023.0 hPa Calm     95% 0.0 mm 0 W/m2
18:07 0.8 °C 0.1 °C 1023.0 hPa Calm     95% 0.0 mm 0 W/m2
18:12 0.8 °C 0.1 °C 1023.0 hPa Calm     95% 0.0 mm 0 W/m2
18:17 0.8 °C 0.1 °C 1023.0 hPa Calm     95% 0.0 mm 0 W/m2
18:22 0.8 °C 0.1 °C 1023.0 hPa Calm     95% 0.0 mm 0 W/m2
18:27 0.8 °C 0.2 °C 1023.0 hPa Calm     96% 0.0 mm 0 W/m2
18:32 0.8 °C 0.2 °C 1023.0 hPa Calm     96% 0.0 mm 0 W/m2
18:37 0.8 °C 0.2 °C 1023.0 hPa Calm     96% 0.0 mm 0 W/m2
18:42 0.8 °C 0.2 °C 1023.0 hPa Calm     96% 0.0 mm 0 W/m2
18:47 0.8 °C 0.2 °C 1023.0 hPa Calm     96% 0.0 mm 0 W/m2
18:53 0.8 °C 0.2 °C 1023.0 hPa Calm     96% 0.0 mm 0 W/m2
18:58 0.8 °C 0.2 °C 1023.4 hPa Calm     96% 0.0 mm 0 W/m2
19:03 0.8 °C 0.2 °C 1023.4 hPa Calm     96% 0.0 mm 0 W/m2
19:08 0.8 °C 0.2 °C 1023.4 hPa Calm     96% 0.0 mm 0 W/m2
19:13 0.8 °C 0.2 °C 1023.0 hPa Calm     96% 0.0 mm 0 W/m2
19:18 0.8 °C 0.2 °C 1023.4 hPa Calm     96% 0.0 mm 0 W/m2
19:23 0.8 °C 0.2 °C 1023.4 hPa Calm     96% 0.0 mm 0 W/m2
19:28 0.8 °C 0.2 °C 1023.4 hPa Calm     96% 0.0 mm 0 W/m2
19:33 0.8 °C 0.2 °C 1023.4 hPa Calm     96% 0.0 mm 0 W/m2
19:38 0.8 °C 0.2 °C 1023.4 hPa Calm     96% 0.0 mm 0 W/m2
19:43 0.8 °C 0.2 °C 1023.4 hPa Calm     96% 0.0 mm 0 W/m2
19:48 0.7 °C 0.1 °C 1023.4 hPa Calm     96% 0.0 mm 0 W/m2
19:53 0.8 °C 0.2 °C 1023.4 hPa Calm     96% 0.0 mm 0 W/m2
19:58 0.8 °C 0.2 °C 1023.7 hPa Calm     96% 0.0 mm 0 W/m2
20:03 0.8 °C 0.2 °C 1023.7 hPa Calm     96% 0.0 mm 0 W/m2
20:08 0.8 °C 0.2 °C 1023.7 hPa Calm     96% 0.0 mm 0 W/m2
20:13 0.8 °C 0.2 °C 1023.7 hPa Calm     96% 0.0 mm 0 W/m2
20:18 0.8 °C 0.2 °C 1023.7 hPa Calm     96% 0.0 mm 0 W/m2
20:23 0.8 °C 0.2 °C 1023.4 hPa Calm     96% 0.0 mm 0 W/m2
20:28 0.8 °C 0.2 °C 1023.7 hPa Calm     96% 0.0 mm 0 W/m2
20:33 0.8 °C 0.2 °C 1023.7 hPa Calm     96% 0.0 mm 0 W/m2
20:38 0.7 °C 0.1 °C 1023.7 hPa Calm     96% 0.0 mm 0 W/m2
20:43 0.7 °C 0.1 °C 1023.7 hPa Calm     96% 0.0 mm 0 W/m2
20:48 0.7 °C 0.1 °C 1023.7 hPa Calm     96% 0.0 mm 0 W/m2
20:53 0.7 °C 0.1 °C 1023.4 hPa Calm     96% 0.0 mm 0 W/m2
20:58 0.7 °C 0.1 °C 1023.4 hPa Calm     96% 0.0 mm 0 W/m2
21:03 0.7 °C 0.1 °C 1023.7 hPa Calm     96% 0.0 mm 0 W/m2
21:08 0.7 °C 0.1 °C 1023.4 hPa Calm     96% 0.0 mm 0 W/m2
21:13 0.7 °C 0.1 °C 1023.7 hPa Calm     96% 0.0 mm 0 W/m2
21:18 0.7 °C 0.1 °C 1023.4 hPa Calm     96% 0.0 mm 0 W/m2
21:23 0.7 °C 0.1 °C 1023.4 hPa Calm     96% 0.0 mm 0 W/m2
21:28 0.7 °C 0.1 °C 1023.4 hPa Calm     96% 0.0 mm 0 W/m2
21:33 0.7 °C 0.1 °C 1023.4 hPa Calm     96% 0.0 mm 0 W/m2
21:38 0.7 °C 0.1 °C 1023.4 hPa Calm     96% 0.0 mm 0 W/m2
21:43 0.7 °C 0.1 °C 1023.4 hPa Calm     96% 0.0 mm 0 W/m2
21:48 0.6 °C 0 °C 1023.4 hPa Calm     96% 0.0 mm 0 W/m2
21:53 0.6 °C 0 °C 1023.4 hPa Calm     96% 0.0 mm 0 W/m2
21:58 0.6 °C 0 °C 1023.4 hPa Calm     96% 0.0 mm 0 W/m2
22:03 0.5 °C -0.1 °C 1023.4 hPa Calm     96% 0.0 mm 0 W/m2
22:08 0.4 °C -0.2 °C 1023.0 hPa Calm     96% 0.0 mm 0 W/m2
22:13 0.3 °C -0.3 °C 1023.0 hPa Calm     96% 0.0 mm 0 W/m2
22:18 0.3 °C -0.3 °C 1023.0 hPa Calm     96% 0.0 mm 0 W/m2
22:23 0.2 °C -0.4 °C 1023.0 hPa Calm     96% 0.0 mm 0 W/m2
22:28 0.2 °C -0.4 °C 1023.0 hPa Calm     96% 0.0 mm 0 W/m2
22:33 0.2 °C -0.4 °C 1023.0 hPa Calm     96% 0.0 mm 0 W/m2
22:38 0.2 °C -0.4 °C 1023.0 hPa Calm     96% 0.0 mm 0 W/m2
22:43 0.2 °C -0.4 °C 1023.0 hPa Calm     96% 0.0 mm 0 W/m2
22:48 0.2 °C -0.4 °C 1023.0 hPa Calm     96% 0.0 mm 0 W/m2
22:53 0.2 °C -0.4 °C 1023.0 hPa Calm     96% 0.0 mm 0 W/m2
22:58 0.2 °C -0.4 °C 1023.0 hPa Calm     96% 0.0 mm 0 W/m2
23:03 0.2 °C -0.4 °C 1023.0 hPa Calm     96% 0.0 mm 0 W/m2
23:08 0.2 °C -0.4 °C 1023.4 hPa Calm     96% 0.0 mm 0 W/m2
23:13 0.2 °C -0.2 °C 1023.4 hPa Calm     97% 0.0 mm 0 W/m2
23:18 0.2 °C -0.2 °C 1023.0 hPa Calm     97% 0.0 mm 0 W/m2
23:23 0.3 °C -0.1 °C 1023.0 hPa Calm     97% 0.0 mm 0 W/m2
23:28 0.3 °C -0.1 °C 1023.0 hPa Calm     97% 0.0 mm 0 W/m2
23:33 0.3 °C -0.1 °C 1023.0 hPa Calm     97% 0.0 mm 0 W/m2
23:38 0.3 °C -0.1 °C 1023.0 hPa Calm     97% 0.0 mm 0 W/m2
23:43 0.3 °C -0.1 °C 1023.0 hPa Calm     97% 0.0 mm 0 W/m2
23:48 0.3 °C -0.1 °C 1023.0 hPa Calm     97% 0.0 mm 0 W/m2
23:53 0.3 °C -0.1 °C 1023.4 hPa Calm     97% 0.0 mm 0 W/m2
23:58 0.3 °C -0.1 °C 1023.0 hPa Calm     97% 0.0 mm 0 W/m2
Juneau County Weather
Compliments of Weather Underground - 4 mb